Regional Weather Roundup
Issued by NWS

Home | Current Version | Previous Version | Text Only | Print | Product List | Glossary Off
Versions: 1 2 3 4 5 6 7 8 9 10 11 12 13 14 15 16 17 18 19 20 21 22 23 24 25 26 27 28 29 30 31 32 33 34 35 36 37 38 39 40 41 42 43 44 45 46 47 48 49 50

618
ASUS44 KMEG 281400
RWRTN
TENNESSEE HOURLY STATE WEATHER ROUNDUP
NATIONAL WEATHER SERVICE MEMPHIS TN
900 AM CDT SUN MAY 28 2017

TNZ002-004-019-021-049-052-054-088>092-281500-
WEST TENNESSEE

CITY           SKY/WX    TMP DP  RH WIND       PRES   REMARKS
MEMPHIS INTL   CLOUDY    65  64  97 S14G21    29.89F
NWS MEMPHIS      N/A     65 N/A N/A MISG        N/A
JACKSON        CLOUDY    66  64  93 SW10      29.85F
$$

TNZ008-025-027-028-033-062-065-066-281500-
NORTH MIDDLE TENNESSEE

CITY           SKY/WX    TMP DP  RH WIND       PRES   REMARKS
NASHVILLE      CLOUDY    68  65  90 VRB3      29.94R
CLARKSVILLE    CLOUDY    65  61  87 SW7       29.87F
SMYRNA         CLOUDY    69  64  84 S3        29.95R
CROSSVILLE     CLOUDY    65  61  87 W12       29.98R
$$

TNZ061-075-076-078-094-096-097-281500-
SOUTH MIDDLE TENNESSEE

CITY           SKY/WX    TMP DP  RH WIND       PRES   REMARKS
TULLAHOMA      PTSUNNY   64  63  94 SW14      29.96S
WINCHESTER     SUNNY     66  63  88 S8          N/A
$$

TNZ017-018-042-046-047-281500-
NORTHEAST TENNESSEE

CITY           SKY/WX    TMP DP  RH WIND       PRES   REMARKS
TRI CITIES     PTSUNNY   67  61  81 CALM      29.93F
$$

TNZ012-013-036-069-073-074-281500-
CENTRAL EAST TENNESSEE

CITY           SKY/WX    TMP DP  RH WIND       PRES   REMARKS
KNOXVILLE      CLOUDY    66  62  87 N6        29.91R
OAK RIDGE      LGT RAIN  66  63  90 VRB5      29.93R
GATLINBURG     MOSUNNY   64  61  88 E3        29.92F
$$

TNZ083-085-099-281500-
SOUTHEAST TENNESSEE

CITY           SKY/WX    TMP DP  RH WIND       PRES   REMARKS
CHATTANOOGA    CLOUDY    69  69 100 S7        29.98R
$$

SKY/WX REPORTED AS FAIR MEANS FEW OR NO CLOUDS BELOW
12 THOUSAND FEET.





USA.gov is the U.S. government's official web portal to all federal, state and local government web resources and services.